Location: Bismarck
(46.7731°N, 100.8200°W)
Time: 05:26:11
(UTC-05:00)

Amateur Radio Satellites - All Passes

Search period start: 01 November 2014 04:56
Search period end: 02 November 2014 03:56
Location: Bismarck, 46.7731°N, 100.8200°W

Satellite Date Start Highest point End Downlink Frequencies (MHz)
Time Altitude Azimuth
JAS-1B 01 Nov 04:56:06 05:02:18 37° 297° (WNW) 05:09:31 435.800 - 435.900 CW/SSB
AO-27 01 Nov 05:29:29 05:33:37 24° 299° (WNW) 05:37:44 436.795 MHz FM
RS-15 01 Nov 05:46:01 05:56:58 59° 42° (NE) 06:08:19 29.354 - 29.394 USB, Beacon 29.352 USB
Gurwin Techsat 1B 01 Nov 05:48:40 05:53:12 29° 297° (WNW) 05:57:42 435.225 FM
TMSAT-1 01 Nov 05:54:26 05:59:09 33° 295° (WNW) 06:03:50 436.925 FM
Saudisat 1A 01 Nov 05:57:19 06:00:35 21° 113° (ESE) 06:03:52 436.775 MHz
OPAL 01 Nov 06:00:11 06:05:18 88° 253° (WSW) 06:10:22 ?
Sapphire 01 Nov 06:05:07 06:08:16 15° 331° (NNW) 06:11:25 437.095 MHz 1200 baud AX-25 AFSK
Uribyol 2 01 Nov 06:15:04 06:16:24 11° 308° (NW) 06:17:44 436.500 FM
Uosat F 01 Nov 06:20:24 06:25:29 77° 104° (ESE) 06:30:31 435.120 FM
STRAND 1 01 Nov 06:20:32 06:24:18 21° 60° (ENE) 06:28:06 ?
PCSat 01 Nov 06:28:20 06:30:27 12° 338° (NNW) 06:32:34 145.825 MHz
JAS-2 01 Nov 06:30:32 06:37:53 41° 94° (E) 06:44:59 435.800 - 435.900 CW/SSB, 435.910 FM
AO-7 01 Nov 06:43:19 06:51:41 81° 292° (WNW) 07:00:01 29.400 - 29.500 MHz
Hamsat 01 Nov 07:01:49 07:05:40 33° 96° (E) 07:09:30 145.90 MHz
Saudisat 1A 01 Nov 07:35:29 07:39:48 55° 312° (NW) 07:44:09 436.775 MHz
OPAL 01 Nov 07:42:51 07:44:53 12° 270° (W) 07:46:54 ?
STRAND 1 01 Nov 07:57:58 08:03:03 62° 258° (WSW) 08:08:11 ?
RS-15 01 Nov 07:58:43 08:09:17 52° 247° (WSW) 08:20:19 29.354 - 29.394 USB, Beacon 29.352 USB
Uosat F 01 Nov 08:00:28 08:03:40 17° 302° (WNW) 08:06:53 435.120 FM
MaSat-1 01 Nov 08:04:53 08:07:26 69° 62° (ENE) 08:09:47 437.345 MHz
JAS-2 01 Nov 08:15:28 08:23:00 52° 294° (WNW) 08:30:23 435.800 - 435.900 CW/SSB, 435.910 FM
AO-7 01 Nov 08:37:13 08:43:19 24° 313° (NW) 08:49:26 29.400 - 29.500 MHz
Hamsat 01 Nov 08:37:59 08:41:30 26° 294° (WNW) 08:45:01 145.90 MHz
SO-67 01 Nov 08:52:17 08:55:45 77° 102° (ESE) 08:59:11 435.3500 MHz FM
Saudisat 1A 01 Nov 09:17:58 09:20:20 14° 333° (NNW) 09:22:42 436.775 MHz
Sapphire 01 Nov 09:37:46 09:40:24 13° 25° (NNE) 09:43:01 437.095 MHz 1200 baud AX-25 AFSK
PCSat 01 Nov 09:58:59 10:02:31 17° 31° (NNE) 10:06:03 145.825 MHz
KITSAT 1 01 Nov 10:02:27 10:06:17 14° 98° (E) 10:10:07 435.175 FM
JAS-2 01 Nov 10:02:37 10:06:19 14° 315° (NW) 10:10:01 435.800 - 435.900 CW/SSB, 435.910 FM
HO-68 01 Nov 10:06:14 10:12:49 37° 96° (E) 10:19:20 435.675 MHz FM
ISS 01 Nov 10:25:52 10:28:14 18° 137° (SE) 10:30:36 145.800 FM
UKube-1 01 Nov 10:48:18 10:51:59 26° 95° (E) 10:55:37 145.840 MHz, 145.915 MHz
ZACube-1 01 Nov 10:59:59 11:02:24 15° 90° (E) 11:04:47 437.345 MHz
Sapphire 01 Nov 11:20:05 11:25:18 44° 48° (NE) 11:30:28 437.095 MHz 1200 baud AX-25 AFSK
Oscar 11 01 Nov 11:22:01 11:26:17 57° 101° (E) 11:30:32 145.825 FM, Beacon 2401.500 USB
SO-50 01 Nov 11:38:40 11:42:44 34° 117° (ESE) 11:46:55 436.795 FM
FUNcube-1 01 Nov 11:41:28 11:45:26 39° 98° (E) 11:49:19 145.950 - 145.970 MHz USB
PCSat 01 Nov 11:41:36 11:47:01 65° 54° (NE) 11:52:24 145.825 MHz
KITSAT 1 01 Nov 11:52:11 12:00:10 67° 118° (ESE) 12:08:10 435.175 FM
HO-68 01 Nov 11:53:49 12:00:42 51° 296° (WNW) 12:07:34 435.675 MHz FM
ISS 01 Nov 12:01:15 12:04:34 83° 335° (NNW) 12:07:55 145.800 FM
UKube-1 01 Nov 12:24:15 12:28:13 35° 293° (WNW) 12:32:10 145.840 MHz, 145.915 MHz
ZACube-1 01 Nov 12:35:04 12:39:11 55° 288° (WNW) 12:43:15 437.345 MHz
Saudisat 1A 01 Nov 12:41:46 12:43:35 12° 23° (NNE) 12:45:23 436.775 MHz
Oscar 19 01 Nov 12:54:16 12:57:37 18° 58° (ENE) 13:00:58 437.125 CW, 437.150 USB
Oscar 11 01 Nov 12:59:17 13:02:03 17° 298° (WNW) 13:04:49 145.825 FM, Beacon 2401.500 USB
Sapphire 01 Nov 13:03:45 13:08:38 35° 248° (WSW) 13:13:29 437.095 MHz 1200 baud AX-25 AFSK
FUNcube-1 01 Nov 13:18:22 13:21:35 22° 296° (WNW) 13:24:46 145.950 - 145.970 MHz USB
SO-50 01 Nov 13:18:59 13:23:14 38° 317° (NW) 13:27:38 436.795 FM
PCSat 01 Nov 13:25:53 13:29:57 22° 253° (WSW) 13:34:01 145.825 MHz
AO-27 01 Nov 13:33:15 13:36:40 18° 57° (ENE) 13:40:05 436.795 MHz FM
ISS 01 Nov 13:38:27 13:41:34 35° 354° (N) 13:44:40 145.800 FM
Oscar 16 01 Nov 13:39:40 13:44:29 41° 67° (ENE) 13:49:17 437.025 USB, Beacon 2401.1428
HO-68 01 Nov 13:43:55 13:46:48 13° 318° (NW) 13:49:42 435.675 MHz FM
KITSAT 1 01 Nov 13:48:37 13:56:06 40° 321° (NW) 14:03:37 435.175 FM
JAS-1B 01 Nov 13:55:07 14:00:37 53° 68° (ENE) 14:06:16 435.800 - 435.900 CW/SSB
Gurwin Techsat 1B 01 Nov 13:55:20 13:58:23 16° 56° (NE) 14:01:25 435.225 FM
UOSAT-12 01 Nov 13:56:09 14:00:47 71° 124° (SE) 14:05:30 437.025 FM, 437.400 FM
TMSAT-1 01 Nov 14:01:40 14:04:08 13° 54° (NE) 14:06:36 436.925 FM
AO-Echo 01 Nov 14:05:53 14:10:30 37° 66° (ENE) 14:15:17 ?
AO-7 01 Nov 14:06:49 14:10:21 13° 35° (NE) 14:13:53 29.400 - 29.500 MHz
Uribyol 2 01 Nov 14:14:38 14:19:27 39° 66° (ENE) 14:24:16 436.500 FM
Saudisat 1A 01 Nov 14:20:04 14:24:18 42° 45° (NE) 14:28:31 436.775 MHz
ITAMSAT 1 01 Nov 14:22:47 14:27:40 42° 67° (ENE) 14:32:36 435.822 SSB
Oscar 19 01 Nov 14:31:15 14:36:23 75° 257° (WSW) 14:41:32 437.125 CW, 437.150 USB
SO-50 01 Nov 15:03:11 15:05:09 12° 340° (NNW) 15:07:08 436.795 FM
AO-27 01 Nov 15:10:21 15:15:34 77° 256° (WSW) 15:20:51 436.795 MHz FM
ISS 01 Nov 15:15:29 15:18:43 44° 14° (NNE) 15:21:56 145.800 FM
Oscar 16 01 Nov 15:19:32 15:23:57 29° 265° (W) 15:28:24 437.025 USB, Beacon 2401.1428
Gurwin Techsat 1B 01 Nov 15:32:17 15:37:36 89° 75° (ENE) 15:42:58 435.225 FM
UOSAT-12 01 Nov 15:37:35 15:41:24 24° 324° (NW) 15:45:16 437.025 FM, 437.400 FM
TMSAT-1 01 Nov 15:37:53 15:43:11 77° 73° (ENE) 15:48:31 436.925 FM
AO-Echo 01 Nov 15:44:50 15:49:19 32° 265° (W) 15:53:56 ?
JAS-1B 01 Nov 15:47:21 15:51:47 23° 269° (W) 15:56:18 435.800 - 435.900 CW/SSB
KITSAT 1 01 Nov 15:48:24 15:54:05 20° 350° (N) 15:59:47 435.175 FM
AO-7 01 Nov 15:53:22 16:01:04 45° 59° (ENE) 16:08:48 29.400 - 29.500 MHz
Uribyol 2 01 Nov 15:54:20 15:58:58 32° 264° (W) 16:03:38 436.500 FM
Uosat F 01 Nov 15:59:27 16:03:13 22° 60° (ENE) 16:07:00 435.120 FM
Saudisat 1A 01 Nov 15:59:56 16:03:43 28° 244° (WSW) 16:07:29 436.775 MHz
ITAMSAT 1 01 Nov 16:02:48 16:07:18 29° 265° (W) 16:11:50 435.822 SSB
JAS-2 01 Nov 16:46:34 16:51:48 25° 55° (NE) 16:57:28 435.800 - 435.900 CW/SSB, 435.910 FM
ISS 01 Nov 16:52:13 16:55:28 49° 213° (SSW) 16:58:42 145.800 FM
AO-27 01 Nov 16:54:50 16:55:57 11° 275° (W) 16:57:05 436.795 MHz FM
Gurwin Techsat 1B 01 Nov 17:15:49 17:18:19 13° 273° (W) 17:20:50 435.225 FM
TMSAT-1 01 Nov 17:20:32 17:23:43 16° 272° (W) 17:26:54 436.925 FM
Uosat F 01 Nov 17:36:39 17:41:36 58° 259° (WSW) 17:46:37 435.120 FM
AO-7 01 Nov 17:45:53 17:53:49 49° 259° (W) 18:01:49 29.400 - 29.500 MHz
KITSAT 1 01 Nov 17:46:37 17:52:50 23° 20° (NNE) 17:59:02 435.175 FM
Hamsat 01 Nov 17:57:54 18:01:40 34° 69° (ENE) 18:05:27 145.90 MHz
OPAL 01 Nov 18:08:16 18:11:36 18° 93° (E) 18:14:55 ?
SO-50 01 Nov 18:27:08 18:30:28 18° 30° (NNE) 18:33:49 436.795 FM
JAS-2 01 Nov 18:29:32 18:35:59 78° 257° (WSW) 18:43:21 435.800 - 435.900 CW/SSB, 435.910 FM
Oscar 10/S400 01 Nov 19:04:35 19:27:49 50° 183° (S) 01:25:46 145.825 - 145.975 CW/USB, Beacon 145.810 USB
UOSAT-12 01 Nov 19:05:01 19:05:41 10° 14° (NNE) 19:06:22 437.025 FM, 437.400 FM
AO-40 01 Nov 19:18:17 22:56:30 31° 193° (SSW) 02:56:03 Beacon 2401.320
SO-67 01 Nov 19:27:26 19:30:37 37° 72° (ENE) 19:33:50 435.3500 MHz FM
Hamsat 01 Nov 19:34:16 19:37:41 24° 266° (W) 19:41:07 145.90 MHz
KITSAT 1 01 Nov 19:42:16 19:50:13 56° 47° (NE) 19:58:06 435.175 FM
OPAL 01 Nov 19:46:01 19:50:55 63° 291° (WNW) 19:55:48 ?
STRAND 1 01 Nov 20:05:48 20:10:32 36° 97° (E) 20:15:14 ?
SO-50 01 Nov 20:07:00 20:11:51 72° 51° (NE) 20:16:44 436.795 FM
RS-15 01 Nov 20:17:25 20:24:51 21° 100° (E) 20:32:14 29.354 - 29.394 USB, Beacon 29.352 USB
JAS-2 01 Nov 20:18:50 20:22:25 15° 279° (W) 20:26:13 435.800 - 435.900 CW/SSB, 435.910 FM
HO-68 01 Nov 20:37:54 20:44:23 39° 60° (ENE) 20:50:54 435.675 MHz FM
UOSAT-12 01 Nov 20:43:30 20:47:30 26° 37° (NE) 20:51:27 437.025 FM, 437.400 FM
SO-67 01 Nov 21:01:43 21:03:46 15° 269° (W) 21:05:48 435.3500 MHz FM
OPAL 01 Nov 21:27:47 21:28:52 11° 310° (NW) 21:29:56 ?
KITSAT 1 01 Nov 21:38:00 21:45:28 43° 248° (WSW) 21:52:54 435.175 FM
STRAND 1 01 Nov 21:45:05 21:49:41 34° 295° (WNW) 21:54:15 ?
UKube-1 01 Nov 21:46:20 21:50:15 33° 67° (ENE) 21:54:10 145.840 MHz, 145.915 MHz
SO-50 01 Nov 21:48:39 21:51:55 18° 249° (WSW) 21:55:12 436.795 FM
ZACube-1 01 Nov 21:58:58 22:02:13 20° 63° (ENE) 22:05:26 437.345 MHz
Oscar 11 01 Nov 22:19:36 22:23:52 64° 73° (ENE) 22:28:09 145.825 FM, Beacon 2401.500 USB
UOSAT-12 01 Nov 22:23:20 22:28:01 62° 237° (WSW) 22:32:36 437.025 FM, 437.400 FM
RS-15 01 Nov 22:24:24 22:35:21 80° 122° (ESE) 22:46:20 29.354 - 29.394 USB, Beacon 29.352 USB
HO-68 01 Nov 22:25:02 22:31:56 50° 260° (W) 22:38:55 435.675 MHz FM
FUNcube-1 01 Nov 22:40:10 22:44:29 47° 71° (ENE) 22:48:43 145.950 - 145.970 MHz USB
MaSat-1 01 Nov 23:16:34 23:20:20 72° 300° (WNW) 23:23:41 437.345 MHz
UKube-1 01 Nov 23:22:44 23:26:27 27° 265° (W) 23:30:12 145.840 MHz, 145.915 MHz
ZACube-1 01 Nov 23:33:55 23:38:18 50° 261° (W) 23:42:37 437.345 MHz
Oscar 11 01 Nov 23:58:16 00:00:30 14° 271° (W) 00:02:43 145.825 FM, Beacon 2401.500 USB
FUNcube-1 02 Nov 00:17:48 00:21:05 20° 268° (W) 00:24:19 145.950 - 145.970 MHz USB
RS-15 02 Nov 00:38:37 00:48:50 42° 330° (NNW) 00:59:11 29.354 - 29.394 USB, Beacon 29.352 USB
JAS-1B 02 Nov 01:35:39 01:39:29 14° 87° (E) 01:43:35 435.800 - 435.900 CW/SSB
Oscar 16 02 Nov 01:50:54 01:52:13 11° 86° (E) 01:53:32 437.025 USB, Beacon 2401.1428
Sapphire 02 Nov 01:06:20 01:10:11 20° 106° (ESE) 01:14:03 437.095 MHz 1200 baud AX-25 AFSK
PCSat 02 Nov 01:26:41 01:31:25 32° 111° (ESE) 01:36:10 145.825 MHz
ITAMSAT 1 02 Nov 01:35:01 01:36:41 11° 86° (E) 01:38:20 435.822 SSB
Oscar 19 02 Nov 01:40:12 01:44:45 31° 95° (E) 01:49:15 437.125 CW, 437.150 USB
RS-15 02 Nov 01:55:32 02:04:54 31° 4° (N) 02:14:29 29.354 - 29.394 USB, Beacon 29.352 USB
AO-27 02 Nov 02:20:50 02:25:27 31° 95° (E) 02:30:01 436.795 MHz FM
JAS-1B 02 Nov 02:23:50 02:30:57 72° 104° (ESE) 02:39:28 435.800 - 435.900 CW/SSB
Oscar 16 02 Nov 02:27:14 02:32:24 81° 104° (ESE) 02:37:31 437.025 USB, Beacon 2401.1428
Gurwin Techsat 1B 02 Nov 02:46:00 02:50:36 29° 94° (E) 02:55:10 435.225 FM
Sapphire 02 Nov 02:47:39 02:53:03 70° 305° (NW) 02:58:30 437.095 MHz 1200 baud AX-25 AFSK
AO-Echo 02 Nov 02:48:15 02:53:36 71° 102° (ESE) 02:58:51 ?
TMSAT-1 02 Nov 02:51:24 02:55:42 25° 93° (E) 02:59:58 436.925 FM
Uribyol 2 02 Nov 03:03:19 03:08:33 74° 103° (ESE) 03:13:43 436.500 FM
PCSat 02 Nov 03:09:27 03:14:40 47° 311° (NW) 03:19:55 145.825 MHz
ITAMSAT 1 02 Nov 03:11:44 03:17:00 82° 104° (ESE) 03:22:12 435.822 SSB
Oscar 19 02 Nov 03:19:26 03:24:09 38° 293° (WNW) 03:28:51 437.125 CW, 437.150 USB
